Theta_e
349 346 345 345 345 346 348 349 349 348 348 351 352 351 350 350 350 349 351 354 355 358 357 354 357 356 355 359 359 357 358 349 354 356 355 353 354 353 355 356 353 357 354
352 347 345 346 346 348 349 351 351 352 352 350 350 350 349 348 348 348 348 352 354 357 358 358 354 354 357 359 356 359 354 348 355 358 352 354 354 354 355 354 352 355 354
354 349 347 346 347 348 350 352 353 354 355 352 351 351 350 350 348 347 349 350 354 358 359 360 357 359 355 357 358 356 355 357 355 356 358 361 356 351 353 354 352 356 353
353 352 348 347 347 347 349 351 354 355 356 355 352 352 352 350 348 348 346 348 354 358 357 360 362 361 354 357 354 356 357 353 352 354 353 356 357 364 359 353 354 354 355
351 352 349 346 346 346 347 349 353 355 356 357 355 353 353 349 348 348 346 349 355 357 358 358 362 361 356 354 360 361 361 357 355 353 354 358 355 359 356 356 356 354 353
349 350 350 347 346 345 345 346 352 355 357 359 358 357 355 353 349 348 347 353 350 354 357 357 362 363 362 361 361 364 359 357 357 355 357 353 354 354 358 354 355 354 352
347 350 351 350 347 345 344 345 349 355 355 356 357 358 358 357 355 351 347 352 349 351 358 358 360 362 364 364 361 361 357 359 359 359 356 355 353 353 353 354 354 354 353
347 349 350 350 349 347 346 345 347 353 354 356 357 358 359 355 354 353 347 348 351 350 359 364 358 361 364 365 365 359 359 360 358 360 360 359 356 356 356 356 357 357 355
351 349 350 349 349 349 347 347 346 349 354 357 358 359 359 358 354 352 350 350 350 351 360 361 357 360 362 364 363 360 360 361 359 359 360 360 358 358 359 359 358 357 359
350 350 349 349 349 349 349 348 347 348 353 356 357 359 359 359 356 353 351 350 353 354 356 357 359 361 362 360 360 359 359 362 362 360 359 359 359 360 359 357 358 357 357
351 351 351 349 348 349 349 349 348 349 352 355 355 357 358 358 357 354 353 354 355 356 360 360 360 360 360 360 361 361 361 359 360 362 361 363 362 361 357 353 355 355 356
352 352 352 350 349 348 349 349 349 349 352 354 357 357 358 358 358 356 355 356 358 359 362 360 359 361 359 362 362 360 358 361 359 360 361 361 360 358 355 350 351 351 350
355 354 354 354 350 349 351 352 352 350 351 352 355 356 358 359 360 359 357 358 360 362 361 361 360 359 360 359 358 357 358 359 358 358 356 354 352 352 351 351 351 346 346
358 356 357 356 354 354 354 353 352 350 346 344 352 357 358 361 362 363 363 362 361 360 359 359 359 358 356 353 350 351 351 350 350 350 350 349 349 348 348 349 348 346 347
359 359 360 359 357 355 352 349 348 344 339 353 352 349 349 351 352 353 355 354 354 351 350 349 350 350 350 350 348 344 345 345 345 345 345 343 339 339 341 337 338 343 342
359 359 357 356 355 358 354 352 357 353 353 349 347 347 344 337 342 346 345 346 345 343 343 343 343 343 340 340 336 329 333 334 336 338 338 337 335 334 332 333 334 335 337
358 354 351 350 350 354 353 352 351 350 346 344 341 339 338 337 332 334 341 340 340 342 343 342 341 340 338 332 328 323 325 328 332 334 336 336 333 335 336 338 334 335 336
354 349 348 347 348 350 349 351 350 347 346 343 340 340 339 337 337 337 339 340 340 338 338 337 337 335 330 325 323 324 326 328 332 334 334 334 335 335 332 332 330 330 332
352 350 349 346 346 345 347 347 347 346 346 344 345 344 345 343 338 340 339 338 338 338 336 335 335 334 335 331 324 323 325 327 328 329 329 331 331 331 331 329 329 330 330
353 352 351 347 346 346 346 347 346 344 342 339 337 336 335 336 336 336 336 335 335 334 333 333 333 333 333 330 322 321 324 325 326 326 326 325 325 328 325 324 326 325 326
349 349 348 348 347 347 346 342 341 340 337 335 335 335 334 334 334 333 333 333 333 333 333 332 333 333 332 332 328 322 323 325 325 324 324 325 324 324 324 324 322 323 323
345 345 345 345 344 342 340 338 337 335 334 334 333 333 332 330 331 331 331 330 331 330 330 331 330 327 331 329 327 323 322 321 323 324 324 325 325 324 323 322 322 322 322
343 342 341 340 339 338 338 337 336 335 335 335 334 332 331 329 328 328 328 326 327 326 326 325 326 327 327 327 325 323 323 323 323 324 323 322 320 319 320 323 324 324 324
342 339 339 338 338 337 336 335 335 335 334 333 332 329 326 325 326 325 323 324 324 325 325 325 326 325 325 328 327 325 322 322 322 320 319 317 315 317 319 322 324 327 328
340 337 337 338 336 335 335 334 334 333 331 327 325 324 323 324 323 324 322 319 320 316 316 319 321 321 322 322 319 318 318 317 315 311 313 315 316 317 319 322 324 325 326
338 337 336 335 334 332 332 330 328 326 324 323 322 320 321 321 321 320 321 319 318 317 315 314 315 317 319 319 319 316 313 312 312 313 315 317 319 319 320 320 321 321 322
Wind_Speed
18 22 23 23 22 22 21 20 19 19 19 18 17 15 15 14 14 13 11 6 8 10 7 11 11 8 10 4 4 3 9 10 10 18 14 12 8 8 12 15 10 13 7
18 21 26 26 26 25 24 23 21 20 21 20 18 17 15 14 14 14 12 12 12 11 8 9 8 6 4 6 3 5 10 10 7 19 6 3 12 15 17 7 4 8 7
19 20 23 29 28 29 28 26 25 24 23 21 19 16 14 13 11 13 12 14 13 12 11 9 11 4 7 6 6 4 7 15 2 8 10 5 2 12 12 7 6 5 6
19 20 22 28 31 31 29 28 27 26 26 24 21 20 16 16 16 14 14 15 16 15 12 12 12 10 13 4 3 5 5 6 11 2 8 9 7 7 3 3 9 6 5
19 21 23 31 32 31 31 30 28 27 26 27 26 20 21 17 15 13 11 14 15 12 12 12 12 12 11 14 7 6 7 6 7 11 5 8 10 1 5 2 12 9 8
18 21 28 31 31 32 31 31 30 29 29 26 28 25 20 21 16 15 13 16 16 18 17 13 12 12 13 13 4 9 10 10 7 9 6 9 9 6 9 5 5 8 6
10 18 20 23 31 32 32 31 30 29 29 29 28 27 25 21 18 11 16 17 18 18 25 16 10 13 15 12 9 9 10 13 14 11 12 11 10 10 11 11 10 9 5
5 10 20 23 29 32 33 33 31 29 27 28 29 27 26 26 23 21 19 18 18 13 20 12 10 10 9 10 12 11 12 14 15 13 12 13 12 10 10 10 10 8 11
3 5 9 21 27 31 32 32 30 29 26 27 26 27 26 27 24 20 22 19 21 16 9 17 15 12 10 11 10 12 12 11 13 14 14 12 13 17 10 10 16 11 8
3 4 5 11 21 28 30 30 30 27 25 25 27 27 25 25 22 20 19 21 18 18 14 2 15 9 8 10 11 12 13 12 13 13 12 11 12 13 10 10 10 10 13
3 2 4 10 14 20 24 28 28 25 24 24 27 26 26 24 23 21 20 18 17 13 13 13 4 5 8 9 10 10 14 9 13 12 10 9 9 9 9 10 7 9 12
3 4 2 7 13 15 17 21 22 20 20 20 20 24 24 24 23 22 20 19 18 16 14 14 12 10 9 7 6 9 11 9 10 11 10 10 8 7 9 12 10 10 11
4 4 3 2 4 9 10 9 9 10 14 20 17 20 18 19 19 19 19 19 18 17 17 16 16 15 12 8 6 3 3 6 7 6 6 8 9 10 10 10 11 10 10
6 5 7 4 10 11 7 8 5 6 8 4 25 15 13 9 10 14 16 17 16 15 14 11 15 11 9 9 8 7 4 2 6 7 8 9 9 9 8 8 10 10 10
8 8 8 6 7 7 6 3 4 12 16 10 11 20 23 14 9 5 2 3 4 5 4 4 5 7 7 5 4 0 3 2 6 9 9 9 6 9 12 13 11 10 12
9 9 7 7 6 5 9 10 14 17 28 29 25 26 25 19 19 18 10 8 5 5 2 1 1 0 1 4 3 5 3 2 6 11 11 11 13 14 7 11 7 8 12
7 7 8 8 9 10 15 20 19 19 19 21 15 11 11 13 3 5 16 9 11 4 4 4 5 3 0 3 5 5 6 1 4 10 11 12 11 11 9 7 10 12 14
8 7 8 11 12 15 18 18 20 21 16 14 8 6 6 8 4 7 12 12 10 6 5 8 8 5 4 6 6 8 6 5 8 5 10 11 10 10 9 10 13 13 13
9 11 14 15 16 17 17 17 18 15 12 11 11 9 7 7 9 11 10 8 7 6 8 8 9 7 2 6 5 6 6 4 10 9 10 13 14 15 15 13 14 16 17
17 17 19 17 18 17 17 17 14 11 12 11 12 15 12 10 10 7 5 3 5 7 8 7 8 6 2 6 7 7 7 8 10 10 11 12 13 11 10 12 13 17 17
15 16 18 18 19 18 17 16 15 12 11 11 10 14 11 10 8 5 3 1 3 3 6 6 6 6 5 5 6 7 7 10 9 10 12 10 8 11 17 19 22 22 24
16 16 17 18 16 16 16 16 15 12 10 9 9 10 8 6 4 2 0 3 3 7 6 5 7 8 5 4 6 7 9 9 10 13 14 16 22 25 27 27 24 23 24
15 15 17 16 16 14 14 15 11 9 8 7 6 6 4 3 2 3 4 5 3 5 6 7 7 5 5 6 4 2 7 9 10 11 15 18 22 26 27 24 23 24 22
14 16 16 16 17 13 12 12 9 7 5 4 3 3 2 3 4 4 3 4 4 6 6 6 6 6 5 3 1 6 9 10 8 9 16 23 27 26 25 25 24 20 21
15 15 19 7 14 17 13 12 8 4 3 2 2 1 2 1 2 2 2 5 4 6 7 8 8 9 9 5 7 8 9 10 14 21 20 21 20 20 19 17 17 21 22
19 19 18 14 12 12 9 9 7 5 4 4 3 1 2 2 2 6 4 6 3 3 1 0 3 6 8 10 10 11 11 16 20 19 20 18 17 18 13 16 18 19 22
Wind_Direction
192 193 195 194 191 189 191 191 195 193 193 197 199 209 213 218 225 227 224 222 228 245 211 260 182 207 257 147 326 299 251 280 250 269 328 183 171 203 188 193 199 146 195
198 191 190 195 194 191 191 194 196 194 199 201 208 211 215 221 223 225 222 220 233 245 252 257 284 237 291 159 207 276 288 262 276 292 285 101 274 192 178 185 196 159 213
200 189 191 196 195 194 194 194 198 197 202 211 208 214 230 236 226 233 228 221 226 235 237 257 256 302 276 243 169 235 265 306 229 290 309 332 85 198 349 140 226 147 223
203 192 194 197 200 200 197 199 199 203 205 211 218 212 215 224 223 227 224 225 207 216 237 236 234 240 249 169 168 226 261 295 295 256 279 317 345 357 85 237 177 182 226
199 204 193 198 204 200 200 199 199 204 211 205 217 215 224 225 231 227 223 211 207 211 236 223 225 226 230 230 194 189 221 230 264 297 265 0 315 183 314 324 198 174 210
193 204 199 198 204 202 202 200 195 201 207 210 210 223 218 226 237 212 218 210 214 209 208 215 215 229 239 257 251 225 239 244 255 266 300 273 277 275 240 258 253 252 269
230 193 205 197 198 204 200 202 191 197 207 210 213 213 221 215 231 212 225 230 226 212 179 189 211 231 226 242 239 235 248 250 242 235 254 270 256 255 276 295 294 296 279
221 217 197 205 200 202 204 202 194 193 202 210 211 210 213 216 217 210 225 225 246 232 161 175 204 219 241 236 241 249 258 256 239 244 246 273 281 263 247 260 288 294 282
229 232 225 199 205 201 208 208 205 196 199 207 205 206 207 212 213 215 207 226 230 249 192 198 191 206 229 237 254 254 254 255 237 244 249 249 266 280 271 279 271 279 290
211 185 225 222 204 205 206 211 205 202 201 209 206 203 203 208 214 210 211 214 222 240 268 281 217 188 237 244 250 261 246 234 241 243 249 249 270 301 286 271 292 319 312
185 153 212 197 226 205 200 211 209 203 195 211 205 202 198 200 206 204 209 215 223 228 239 274 277 240 237 244 252 269 271 259 253 256 264 275 264 270 282 295 291 271 261
106 98 283 242 196 214 192 197 203 203 186 196 222 203 197 191 198 203 206 208 213 217 220 228 224 225 228 228 244 258 271 267 271 280 280 276 279 276 274 281 274 275 285
150 175 109 4 179 140 126 121 136 138 164 120 257 212 200 191 189 193 206 210 210 209 213 206 204 201 198 199 196 175 235 273 282 285 288 285 286 285 288 289 283 273 273
159 137 101 112 96 101 127 141 160 158 114 42 264 191 190 186 193 193 194 200 206 210 209 201 195 188 181 184 167 158 147 288 292 288 286 284 285 282 280 277 275 273 272
167 148 141 130 151 177 178 169 174 153 112 135 81 77 71 59 32 330 314 256 209 205 196 181 161 157 155 171 158 67 112 62 308 298 292 287 305 294 277 275 280 300 285
156 127 130 124 127 157 168 149 113 119 133 126 112 99 88 43 33 23 11 24 35 4 60 70 331 5 155 185 266 300 285 53 304 299 300 300 304 289 267 288 286 279 277
123 145 140 126 129 142 113 108 118 114 110 105 99 108 188 164 88 312 286 297 267 246 242 228 216 204 185 296 318 308 296 116 297 295 302 293 292 329 302 304 315 299 292
120 141 125 118 123 125 125 128 130 123 118 118 118 118 105 116 122 211 227 226 239 238 251 259 262 255 261 277 279 299 315 2 311 330 295 297 299 297 304 305 302 300 297
155 147 137 124 122 123 119 129 135 129 131 127 116 102 125 131 160 182 181 204 230 228 240 248 257 260 239 287 290 293 330 305 282 284 307 296 298 297 293 300 309 307 301
154 150 133 130 130 137 140 138 131 125 123 118 116 108 101 98 93 105 140 190 230 230 242 245 258 259 233 277 294 314 301 291 299 317 301 298 294 273 301 319 314 306 303
151 148 142 133 136 142 140 126 118 111 107 101 92 90 89 100 100 107 97 314 257 276 247 248 255 253 241 264 295 302 308 306 309 303 301 294 288 323 323 317 310 296 297
145 150 129 132 129 128 127 116 112 111 105 100 94 82 73 63 56 44 37 262 270 261 260 260 274 246 205 248 280 336 339 331 314 306 302 303 302 306 306 303 299 297 294
148 130 125 120 115 117 117 112 110 114 110 94 76 63 58 42 35 340 334 308 278 303 291 305 297 296 283 276 197 14 347 339 326 316 308 311 310 305 300 297 296 290 283
135 122 128 130 123 119 112 112 115 111 102 96 75 48 26 339 357 319 322 316 314 317 309 300 294 293 289 117 23 320 329 316 297 321 305 301 298 293 286 285 274 275 269
111 122 111 173 122 122 127 123 120 124 126 128 132 179 199 295 283 242 337 338 41 344 318 313 317 312 306 41 345 326 316 310 307 309 305 303 301 299 298 303 316 319 314
137 137 131 141 127 115 122 114 135 158 166 175 177 41 306 300 328 312 306 219 233 338 16 309 313 319 302 304 310 308 307 306 305 303 299 296 297 303 310 308 303 306 306